sat.trackr.live / text

‹ back to catalog

STARLINK-33821

NORAD 63859 · 2025-093Z

PAYLOAD ACTIVE UNKNOWN

§ Identity

Operator
Country
US
Launch date
2025-05-07
Launch site
AFETR
Launch vehicle
Mass (kg)
RCS (m²)

Purposes: comms

External: N2YO · Heavens-Above · Gunter

§ Orbital elements

Epoch: 2026-05-24T22:52:43.392000Z

Period
94.26 min
Inclination
43.0021°
Eccentricity
0.0001446
Mean motion
15.27638928 rev/d
Perigee alt
481.9 km
Apogee alt
483.9 km
Semi-major
6,861.0 km
B*
1.5557e-3
RAAN
7.3382°
Arg perigee
280.1706°
Mean anomaly
79.8982°
Rev number
5,961

§ Raw data

STARLINK-338211 63859U 25093Z   26144.95328000  .00042875  00000+0  15557-2 0  99942 63859  43.0021   7.3382 0001446 280.1706  79.8982 15.27638928 59610

JSON: /api/v1/satellites/63859 · /tle

For live sub-satellite position, see the globe view (requires WebGL).

§ Visibility from observer

Set your observer location to see the next 7 days of passes ≥ 10°. The values pass through the URL so the page stays shareable.

No JS? Fill the form by hand. The geolocation button needs JavaScript.